Regional Weather Roundup
Issued by NWS

Home | Current Version | Previous Version | Graphics & Text | Print | Product List | Glossary On
Versions: 1 2 3 4 5 6 7 8 9 10 11 12 13 14 15 16 17 18 19 20 21 22 23 24 25 26 27 28 29 30 31 32 33 34 35 36 37 38 39 40 41 42 43 44 45 46 47 48 49 50
000
ASUS43 KIND 282300
RWRIN

WEATHER ROUNDUP FOR INDIANA
NATIONAL WEATHER SERVICE INDIANAPOLIS IN
700 PM EDT WED JUN 28 2017

NOTE: "FAIR" INDICATES FEW OR NO CLOUDS BELOW 12,000 FEET WITH NO
SIGNIFICANT WEATHER AND/OR OBSTRUCTIONS TO VISIBILITY.

* - STATION DOES NOT REPORT WEATHER SUCH AS PRECIPITATION OR FOG.

+ - STATION NOT QUALITY CONTROLLED BY THE NATIONAL WEATHER SERVICE.
    USE DATA WITH CAUTION...ESPECIALLY DEWPOINT AND RELATIVE
    HUMIDITY OBSERVATIONS.

INZ001>003-010>013-019-020-290000-
NORTHWEST INDIANA

CITY           SKY/WX    TMP DP  RH WIND       PRES   REMARKS
GARY /AIRPORT/ PTSUNNY   81  54  39 S14G25    29.87R
KNOX *+        FAIR      79  45  29 S17G26    29.91S
MICHIGAN CITY+ FAIR      77  55  47 S14G21    29.88F
MONTICELLO +   FAIR      80  56  43 S12G17    29.92F
RENSSELAER +   FAIR      81  50  34 S22       29.91S

$$

LMZ046-743>745-290000-
SOUTHERN LAKE MICHIGAN

STATION/POSITION TIME  TEMP    WIND        PRES    WAVE
                       AIR SEA DIR/SP/G            HT
                 (UTC) (F)     (DEG/KT/KT) (MB)    (FT)
BURNS HARBOR     2240   79     180/ 21/ 28 1011.5R
MICHIGAN CITY    2230   78     180/ 14/ 15   N/A
5NW MICH CITY    2250   75 66  190/ 17/ 23   N/A     3

$$

INZ004-005-014>016-021>024-290000-
NORTH CENTRAL INDIANA

CITY           SKY/WX    TMP DP  RH WIND       PRES   REMARKS
ELKHART        FAIR      79  54  41 S10G16    29.91F
GOSHEN         FAIR      77  51  40 S14       29.92F
SOUTH BEND     PTSUNNY   77  57  50 S17       29.91S

$$

INZ006>009-017-018-025>027-290000-
NORTHEAST INDIANA

CITY           SKY/WX    TMP DP  RH WIND       PRES   REMARKS
ANGOLA *+      SUNNY     75  70  83 S13       29.95S
FORT WAYNE     PTSUNNY   78  54  43 S15       29.97F
KENDALLVILLE + FAIR      75  51  41 S14G24    29.96S

$$

INZ028-029-035-036-043>045-051>053-290000-
WEST CENTRAL INDIANA

CITY           SKY/WX    TMP DP  RH WIND       PRES   REMARKS
CRAWFORDSVL +  FAIR      76  58  52 S13G20    29.95F
GREENCASTLE +  FAIR      77  55  47 S7        29.98F
LAFAYETTE      FAIR      79  58  48 S12G22    29.93F
TERRE HAUTE    FAIR      81  60  48 S15G21    29.95F

$$

INZ030>032-037>040-046>048-054>057-064-065-290000-
CENTRAL INDIANA

CITY           SKY/WX    TMP DP  RH WIND       PRES   REMARKS
CP ATTERBURY + FAIR      79  54  41 S12       29.99F
COLUMBUS       MOSUNNY   81  46  30 S14G21    30.00S
INDIANAPOLIS   PTSUNNY   78  56  46 S17       29.98R
-EAGLE CREEK   FAIR      79  54  41 S8G18     29.97F
KOKOMO +       FAIR      78  55  44 S15G23    29.97F
MT COMFORT *+  FAIR      79  52  38 S15       29.99S
SHELBYVILLE    FAIR      80  49  33 S16G24    29.99F

$$

INZ033-034-041-042-049-050-058-059-290000-
EAST CENTRAL INDIANA

CITY           SKY/WX    TMP DP  RH WIND       PRES   REMARKS
MUNCIE         FAIR      79  53  40 S10G20    29.98S
RICHMOND +     FAIR      75  52  43 S15       30.04S

$$

INZ060-061-067>069-081>083-085>088-290000-
SOUTHWEST INDIANA

CITY           SKY/WX    TMP DP  RH WIND       PRES   REMARKS
EVANSVILLE     FAIR      83  58  42 S14G20    29.98F
HUNTINGBURG *+ FAIR      81  61  50 S8        30.00F

$$

INZ062-063-066-070>080-084-089>092-290000-
SOUTH CENTRAL AND SOUTHEAST INDIANA

CITY           SKY/WX    TMP DP  RH WIND       PRES   REMARKS
BLOOMINGTON    FAIR      79  56  45 S15       29.99F
MADISON *+     FAIR      81  50  34 S10       30.04S
SEYMOUR +      FAIR      82  57  42 S8        30.01S

$$




USA.gov is the U.S. government's official web portal to all federal, state and local government web resources and services.